{"data":{"norad_id":44358,"intl_designator":"2019-036V","name":"FORMOSAT 7-5","alt_names":[],"object_type":"PAYLOAD","status":"ACTIVE","operator":null,"country":"ROC","launch_date":"2019-06-25","launch_site_code":"AFETR","launch_vehicle":null,"mission":null,"orbit_class":"UNKNOWN","rcs_meters":null,"size_class":null,"mass_kg":null,"dimensions":null,"purposes":[],"wikipedia_slug":null,"has_3d_model":false,"image_url":null,"decayed_at":null,"tle_current":{"epoch":"2026-05-25T01:32:40.430112Z","epoch_age_seconds":65993,"freshness":"FRESH","line1":"1 44358U 19036V   26145.06435683  .00002205  00000+0  16398-3 0  9994","line2":"2 44358  23.9991  64.2524 0000130 246.7623 113.2864 14.96395538378888","mean_motion":14.96395538,"eccentricity":1.3e-5,"inclination_deg":23.9991,"raan_deg":64.2524,"arg_perigee_deg":246.7623,"mean_anomaly_deg":113.2864,"bstar":0.00016398,"rev_number":37888,"period_min":96.231241234829,"perigee_km":577.95406834478,"apogee_km":578.13492906375,"semimajor_km":6956.1814987043,"source":"CELESTRAK","updated_at":"2026-05-25T13:37:55.971573Z"}}}